This demonstration page uses our WeatherBlox Daily Observations layout. Learn more.

Left ArrowRight Arrow

44.8408, -93.29828

Hourly Observations for April 30, 2023

Temp ( °F °C ) Dew Point ( °F °C ) Humidity (%) Winds ( mph kmh ) Pressure ( in mb ) Visibility ( mi km ) Precip ( " mm )
12:53 am 00:53 Mostly Cloudy 44 6.7 27 -2.8 51 51 NNW 20 31 29.68 1005 10 16 0.00 0.00
1:53 am 01:53 Cloudy 43 6.1 27 -2.8 53 53 NNW 20 31 29.65 1004 10 16 0.00 0.00
2:53 am 02:53 Cloudy 43 6.1 27 -2.8 53 53 NNW 22 35 29.64 1004 10 16 0.00 0.00
3:53 am 03:53 Cloudy 41 5 28 -2.2 60 60 NNW 26 43 29.63 1004 10 16 0.00 0.00
4:53 am 04:53 Cloudy 41 5 29 -1.7 62 62 NNW 22 35 29.63 1003 10 16 0.00 0.00
5:53 am 05:53 Cloudy 40 4.4 30 -1.1 67 67 NNW 24 39 29.64 1004 10 16 0.00 0.00
6:29 am 06:29 Cloudy 38 3.3 31 -0.6 76 76 NNW 20 31 29.67 1005 10 16 0.01 0.13
6:53 am 06:53 Cloudy with Light Rain 38 3.3 32 0 79 79 NNW 21 33 29.66 1004 8 13 0.01 0.13
7:12 am 07:12 Cloudy with Light Rain 38 3.3 32 0 79 79 NNW 22 35 29.68 1005 10 16 0.01 0.13
7:53 am 07:53 Cloudy with Light Rain 37 2.8 33 0.6 85 85 NNW 20 31 29.66 1004 9 14 0.01 0.13
8:53 am 08:53 Cloudy 39 3.9 31 -0.6 72 72 N 21 33 29.66 1005 10 16 0.01 0.13
9:53 am 09:53 Cloudy 42 5.6 30 -1.1 62 62 N 23 37 29.67 1005 10 16 0.00 0.00
10:53 am 10:53 Cloudy 43 6.1 30 -1.1 60 60 N 24 39 29.67 1005 10 16 0.00 0.00
11:53 am 11:53 Cloudy with Light Rain 47 8.3 32 0 56 56 NNW 24 39 29.66 1004 10 16 0.01 0.13
12:53 pm 12:53 Cloudy 49 9.4 31 -0.6 50 50 NNW 29 46 29.65 1004 10 16 0.01 0.13
1:53 pm 13:53 Mostly Cloudy 48 8.9 31 -0.6 51 51 NNW 23 37 29.67 1005 10 16 0.01 0.13
2:53 pm 14:53 Cloudy 50 10 30 -1.1 46 46 N 26 43 29.67 1005 10 16 0.00 0.00
3:53 pm 15:53 Cloudy 50 10 30 -1.1 46 46 N 24 39 29.69 1005 10 16 0.00 0.00
4:53 pm 16:53 Cloudy 49 9.4 32 0 52 52 N 24 39 29.71 1006 10 16 0.00 0.00
5:53 pm 17:53 Cloudy 48 8.9 32 0 54 54 N 20 31 29.73 1007 10 16 0.00 0.00
6:53 pm 18:53 Cloudy with Light Rain 47 8.3 35 1.7 63 63 N 23 37 29.75 1008 10 16 0.01 0.13
7:53 pm 19:53 Cloudy 47 8.3 33 0.6 58 58 N 14 22 29.75 1008 10 16 0.01 0.13
8:53 pm 20:53 Cloudy 50 10 30 -1.1 46 46 N 20 31 29.75 1007 10 16 0.00 0.00
9:53 pm 21:53 Cloudy 49 9.4 29 -1.7 46 46 N 20 31 29.75 1007 10 16 0.00 0.00
10:53 pm 22:53 Cloudy 49 9.4 29 -1.7 46 46 N 18 30 29.75 1007 10 16 0.00 0.00
11:53 pm 23:53 Cloudy 47 8.3 30 -1.1 51 51 N 24 39 29.75 1008 10 16 0.00 0.00

Powered by Vaisala Xweather